Regional Weather Roundup
Issued by NWS

Home | Current Version | Previous Version | Graphics & Text | Print | Product List | Glossary On
Versions: 1 2 3 4 5 6 7 8 9 10 11 12 13 14 15 16 17 18 19 20 21 22 23 24 25 26 27 28 29 30 31 32 33 34 35 36 37 38 39 40 41 42 43 44 45 46 47 48 49 50
620
ASUS45 KCYS 221610
RWRWY

WYOMING REGIONAL WEATHER ROUNDUP
NATIONAL WEATHER SERVICE CHEYENNE WY
1000 AM MDT SAT JUL 22 2017

NOTE:  "FAIR" INDICATES FEW OR NO CLOUDS BELOW 12,000 FEET
WITH NO SIGNIFICANT WEATHER AND/OR OBSTRUCTIONS TO VISIBILITY.

WYZ001-221700-
YELLOWSTONE NATIONAL PARK

CITY           SKY/WX    TMP DP  RH WIND       PRES   REMARKS
LK YELLOWSTONE   N/A     58  45  62 SE5       30.43R
W YELLOWSTONE  NOT AVBL

$$
WYZ002>013-054>058-071-098>099-221700-
NORTHERN WYOMING

CITY           SKY/WX    TMP DP  RH WIND       PRES   REMARKS
JACKSON        SUNNY     61  36  39 CALM      30.34F
CODY           FAIR      74  36  25 CALM      30.26S
GREYBULL       FAIR      77  28  16 CALM      30.16S
WORLAND        FAIR      77  29  17 VRB3      30.18R
SHERIDAN       FAIR      77  36  22 N8        30.19R
BUFFALO        FAIR      75  31  19 N8        30.24R
GILLETTE       FAIR      78  33  19 N8        30.17S
HULETT         FAIR      79  37  22 N9        30.17R
NEWCASTLE      FAIR      81  41  24 NW12      30.13S

$$
WYZ014>020-022>026-101>103-221700-
CENTRAL WYOMING

CITY           SKY/WX    TMP DP  RH WIND       PRES   REMARKS
BIG PINEY      FAIR      65  41  41 S3        30.37S
PINEDALE       FAIR      66  36  32 CALM      30.37S
DUBOIS         FAIR      66  28  24 E3        30.36S
LANDER         FAIR      76  33  21 SE3       30.27S
RIVERTON       FAIR      74  34  23 E6        30.26R
CASPER         FAIR      77  33  20 N10       30.24R
DOUGLAS        FAIR      79  49  34 NW17      30.19R

$$
WYZ021-027>030-104>119-221700-
SOUTHERN WYOMING

CITY           SKY/WX    TMP DP  RH WIND       PRES   REMARKS
EVANSTON       FAIR      73  42  32 NE3       30.36S
KEMMERER         N/A     72  32  23 W3        30.38S
FORT BRIDGER   FAIR      73  36  25 CALM      30.38S
ROCK SPRINGS   FAIR      74  36  25 VRB3      30.35S
RAWLINS        FAIR      73  44  35 SW9       30.34R
SARATOGA       FAIR      68  50  52 SE6       30.37S
LARAMIE        FAIR      68  48  48 E3        30.35S
CHEYENNE       FAIR      80  46  30 NW13G21   30.24R
TORRINGTON     FAIR      79  52  38 N5        30.12R
PINE BLUFFS    FAIR      82  45  26 NE7       30.19S

$$




USA.gov is the U.S. government's official web portal to all federal, state and local government web resources and services.